Location: Demmingen
(48.6757°N, 10.4375°E)
Time: 18:40:23
(UTC+00:00)

MOZ.5/SAFIR/RUBIN 5/SL-8 - Pass Details

Date: 23 May 2024
Orbit: 671 x 700 km, 98.3° (Epoch: 24 June)

Event Time Altitude Azimuth Distance (km) Brightness Sun altitude
Exits shadow 01:18:35 26° 206° (SSW) 1,373 4.7 -15.4°
Maximum altitude 01:20:51 43° 261° (W) 975 4.3 -15.2°
Drops below altitude 10° 01:25:22 10° 334° (NNW) 2,160 6.8 -14.8°
Sets 01:27:43 0° 341° (NNW) 3,077 7.7 -14.6°
